Tracking 29033 objects as of 22-Jun-2024
HD Live streaming from Space Station
objects crossing your sky now

YAOGAN-40 01B

Track YAOGAN-40 01B now!
10-day predictions


NORAD ID: 57832
Int'l Code: 2023-139C
Perigee: 857.9 km
Apogee: 860.7 km
Inclination: 86.0 °
Period: 102.0 minutes
Semi major axis: 7230 km
RCS: Unknown
Launch date: September 10, 2023
Source: People's Republic of China (PRC)
Launch site: Taiyaun Space Center, China (TSC)
Your satellite tracking list
Your tracking list is empty




NASA's NSSDC Master Catalog

Two Line Element Set (TLE):
1 57832U 23139C   24174.15260073 -.00000150  00000-0 -92203-4 0  9993
2 57832  85.9928 225.1209 0001951  93.2550 266.8856 14.12101072 40373
Source of the keplerian elements: AFSPC